Hollywood, FL

6:38 AM EDT on March 28, 2017 (GMT -0400)
North Perry

Weather History for KHWO - November, 2013

Change the Weather History Date:

Monday, November 25, 2013

  Actual Average (KFLL) Record (KFLL)
Temperature  
Mean Temperature 74 °F -  
Max Temperature 75 °F 79 °F 90 °F (1947)
Min Temperature 72 °F 63 °F 36 °F (1970)
Cooling Degree Days 8    
Growing Degree Days 24 (Base 50)    
Moisture  
Dew Point 65 °F    
Average Humidity 74    
Maximum Humidity 84    
Minimum Humidity 66    
Precipitation  
Precipitation 0.05 in - - ()
Sea Level Pressure  
Sea Level Pressure 30.13 in    
Wind  
Wind Speed 18 mph (ENE)    
Max Wind Speed 23 mph    
Max Gust Speed 30 mph    
Visibility 10 miles    
Events Rain    
Averages and records for this station are not official NWS values.
T = Trace of Precipitation, MM = Missing Value Source: NWS Daily Summary

Daily Weather History Graph

Daily Weather History Graph

Search for Another Location

Airport or City:

Trip Planner

Search our weather history database for the weather conditions in past years. The results will help you decide how hot, cold, wet, or windy it might be!

Date:

Astronomy

Nov. 25, 2013 Rise Set
Actual Time 6:46 AM EST 5:29 PM EST
Civil Twilight 6:21 AM EST 5:53 PM EST
Nautical Twilight 5:53 AM EST 6:22 PM EST
Astronomical Twilight 5:25 AM EST 6:50 PM EST
Moon No Moon Rise 12:25 PM EST (11/25)
Length of Visible Light 11h 31m
Length of Day
10h 42m
Waning Gibbous, 51% of the Moon is Illuminated
Nov 25
Waning Gibbous
Nov 25
Last Quarter
Dec 2
New
Dec 9
First Quarter
Dec 17
Full

Hourly Weather History & Observations

Time (EST) Temp. Dew Point Humidity Pressure Visibility Wind Dir Wind Speed Gust Speed Precip Events Conditions
12:53 AM 73.0 °F 63.0 °F 71% 30.14 in 10.0 mi ENE 20.7 mph 25.3 mph N/A   Overcast
1:53 AM 73.0 °F 62.1 °F 68% 30.14 in 10.0 mi ENE 18.4 mph 24.2 mph N/A   Overcast
2:53 AM 73.0 °F 62.1 °F 68% 30.14 in 10.0 mi ENE 17.3 mph 27.6 mph N/A   Overcast
3:53 AM 73.0 °F 61.0 °F 66% 30.14 in 10.0 mi ENE 15.0 mph - N/A   Overcast
4:53 AM 72.0 °F 62.1 °F 71% 30.14 in 10.0 mi ENE 20.7 mph 29.9 mph N/A   Overcast
5:53 AM 72.0 °F 61.0 °F 68% 30.14 in 10.0 mi ENE 18.4 mph 27.6 mph N/A   Overcast
6:53 AM 72.0 °F 60.1 °F 66% 30.15 in 10.0 mi ENE 13.8 mph 26.5 mph N/A   Overcast
7:53 AM 72.0 °F 61.0 °F 68% 30.17 in 10.0 mi ENE 19.6 mph 29.9 mph N/A   Overcast
8:53 AM 73.0 °F 61.0 °F 66% 30.19 in 10.0 mi ENE 18.4 mph - N/A   Mostly Cloudy
9:53 AM 73.9 °F 63.0 °F 68% 30.21 in 10.0 mi ENE 19.6 mph 28.8 mph N/A   Overcast
10:53 AM 75.0 °F 63.0 °F 66% 30.21 in 10.0 mi ENE 23.0 mph 29.9 mph N/A   Overcast
11:53 AM 75.0 °F 64.9 °F 71% 30.19 in 10.0 mi ENE 18.4 mph 25.3 mph N/A   Overcast
12:53 PM 75.9 °F 64.9 °F 69% 30.16 in 10.0 mi East 21.9 mph 26.5 mph N/A   Overcast
1:53 PM 75.9 °F 64.0 °F 67% 30.14 in 10.0 mi ENE 19.6 mph - N/A   Mostly Cloudy
2:06 PM 73.4 °F 64.4 °F 73% 30.13 in 9.0 mi East 17.3 mph 27.6 mph 0.00 in Rain Light Rain
2:16 PM 73.4 °F 64.4 °F 73% 30.13 in 10.0 mi ENE 18.4 mph 24.2 mph 0.00 in Rain Light Rain
2:53 PM 75.0 °F 64.9 °F 71% 30.13 in 10.0 mi ENE 21.9 mph 26.5 mph 0.00 in   Overcast
3:35 PM 73.4 °F 66.2 °F 78% 30.13 in 10.0 mi East 18.4 mph 27.6 mph 0.00 in Rain Light Rain
3:53 PM 72.0 °F 66.0 °F 81% 30.13 in 10.0 mi ENE 16.1 mph 25.3 mph 0.00 in Rain Light Rain
4:01 PM 73.4 °F 66.2 °F 78% 30.13 in 10.0 mi ENE 11.5 mph - 0.00 in   Overcast
4:35 PM 73.4 °F 66.2 °F 78% 30.12 in 10.0 mi ENE 12.7 mph 23.0 mph 0.00 in   Overcast
4:53 PM 73.9 °F 66.0 °F 76% 30.12 in 10.0 mi ENE 13.8 mph - 0.00 in   Overcast
5:38 PM 73.4 °F 66.2 °F 78% 30.11 in 10.0 mi ENE 16.1 mph 23.0 mph N/A   Mostly Cloudy
5:53 PM 73.9 °F 66.0 °F 76% 30.11 in 10.0 mi ENE 17.3 mph 24.2 mph N/A   Mostly Cloudy
6:49 PM 73.4 °F 66.2 °F 78% 30.11 in 10.0 mi ENE 15.0 mph - 0.00 in Rain Light Rain
6:53 PM 73.0 °F 66.9 °F 81% 30.11 in 9.0 mi ENE 18.4 mph 26.5 mph 0.00 in Rain Light Rain
7:02 PM 73.4 °F 68.0 °F 83% 30.11 in 9.0 mi ENE 21.9 mph 27.6 mph 0.00 in Rain Light Rain
7:38 PM 73.4 °F 68.0 °F 83% 30.11 in 10.0 mi East 12.7 mph - 0.00 in   Mostly Cloudy
7:53 PM 73.9 °F 66.9 °F 79% 30.12 in 10.0 mi East 13.8 mph - 0.00 in   Mostly Cloudy
8:53 PM 73.0 °F 68.0 °F 84% 30.13 in 10.0 mi East 12.7 mph - 0.01 in Rain Light Rain
9:53 PM 73.0 °F 68.0 °F 84% 30.11 in 10.0 mi East 15.0 mph - 0.04 in   Overcast
10:53 PM 73.0 °F 66.9 °F 81% 30.09 in 10.0 mi East 19.6 mph 25.3 mph 0.00 in   Overcast
11:53 PM 73.0 °F 68.0 °F 84% 30.06 in 10.0 mi East 15.0 mph 29.9 mph 0.00 in Rain Light Rain